User: anonymous   Login
Location: Lower Kingswood
(51.2667°N, 0.2167°W)
Time: 11:11:02
(UTC+00:00)
Language:

NOSS 3-1 (C) - Orbit

View from above orbital plane
View from above orbital plane
View from above satellite
View from above satellite

Ground track
Ground track

The orbit data is extracted from the following two-line orbital elements,

1 26907U 01040C   24038.79748458 0.00000455  00000-0  28123-3 0    04
2 26907  63.3823 291.4479 0595514   7.0648 352.7075 13.41626793    02
Epoch (UTC): 07 February 2024 19:08:22
Eccentricity: 0.0595514
inclination: 63.3823°
perigee height: 658 km
apogee height: 1549 km
right ascension of ascending node: 291.4479°
argument of perigee: 7.0648°
revolutions per day: 13.41626793
mean anomaly at epoch: 352.7075°
orbit number at epoch: 0

The dashed part of the orbit path shows where the satellite is in the earth's shadow,  

DLR